M I D A S
Marine Information and Data Acquisition System
Tripno 1722 of the Zeeleeuw from 2009-02-13 09:01:58 to 2009-02-13 12:51:45
Back to CruiseResearch ActivitiesStationsMapUnderway DataData graphs

EquipmentUnitsComments
TimeDGPSUTC
LatitudeDGPSDM.mWGS84
LongitudeDGPSDM.mWGS84
SpeedMeteo Stationm/sRelative wind speed
DirectionMeteo StationdegRelative wind direction
TemperatureMeteo Stationdeg CelciusAir temperature
PressureMeteo StationPaAtmospheric pressure
HumidityMeteo Station%Relative humidity
Missing or incorrect values are displayed as -999
Metereological data collected by the RV Zeeleeuw from 2009-02-13 09:01:47 to 2009-02-13 13:00:09
                                                                                    Next 1000 lines
Time Latitude Longitude Speed Direction Temperature Pressure Humidity
2009-02-13 09:01:57 51°13.663 2°55.958 2.9 355 1.4 101930 86
2009-02-13 09:02:02 51°13.663 2°55.956 3.1 355 1.4 101930 87
2009-02-13 09:02:07 51°13.664 2°55.954 2.6 8 1.4 101930 87
2009-02-13 09:02:12 51°13.665 2°55.951 2.4 3 1.3 101930 87
2009-02-13 09:02:17 51°13.666 2°55.948 2.1 5 1.3 101930 87
2009-02-13 09:02:22 51°13.667 2°55.945 2 4 1.3 101930 86
2009-02-13 09:02:27 51°13.668 2°55.941 2.3 4 1.3 101930 86
2009-02-13 09:02:32 51°13.67 2°55.937 1.8 10 1.3 101930 88
2009-02-13 09:02:37 51°13.671 2°55.933 1 4 1.3 101930 88
2009-02-13 09:02:42 51°13.672 2°55.928 1 11 1.3 101940 87
2009-02-13 09:02:47 51°13.674 2°55.924 1.4 17 1.3 101940 87
2009-02-13 09:02:52 51°13.675 2°55.919 1.3 11 1.3 101930 88
2009-02-13 09:02:57 51°13.677 2°55.914 0.9 15 1.3 101930 88
2009-02-13 09:03:02 51°13.679 2°55.908 0.9 22 1.4 101940 88
2009-02-13 09:03:07 51°13.68 2°55.903 1.1 29 1.4 101940 88
2009-02-13 09:03:12 51°13.683 2°55.897 1.1 29 1.4 101930 87
2009-02-13 09:03:17 51°13.685 2°55.891 1.7 30 1.4 101930 87
2009-02-13 09:03:22 51°13.687 2°55.885 2.1 35 1.4 101940 88
2009-02-13 09:03:27 51°13.689 2°55.879 2 43 1.4 101940 88
2009-02-13 09:03:32 51°13.691 2°55.872 1.9 45 1.3 101940 89
2009-02-13 09:03:37 51°13.694 2°55.866 2.2 45 1.3 101940 89
2009-02-13 09:03:42 51°13.695 2°55.859 2.4 76 1.4 101940 88
2009-02-13 09:03:47 51°13.698 2°55.851 2.3 32 1.4 101940 88
2009-02-13 09:03:52 51°13.699 2°55.843 2.2 27 1.4 101940 88
2009-02-13 09:03:57 51°13.701 2°55.835 2.4 33 1.4 101940 88
2009-02-13 09:04:02 51°13.702 2°55.826 2.5 22 1.3 101940 88
2009-02-13 09:04:07 51°13.704 2°55.818 2 38 1.3 101940 88
2009-02-13 09:04:12 51°13.705 2°55.809 2.1 25 1.4 101940 89
2009-02-13 09:04:17 51°13.706 2°55.801 4 37 1.4 101940 89
2009-02-13 09:04:22 51°13.706 2°55.793 3.4 41 1.4 101940 89
2009-02-13 09:04:27 51°13.707 2°55.785 3.9 40 1.4 101940 89
2009-02-13 09:04:32 51°13.707 2°55.778 3.5 39 1.4 101940 89
2009-02-13 09:04:37 51°13.707 2°55.771 3.1 39 1.4 101940 89
2009-02-13 09:04:42 51°13.707 2°55.764 2.8 38 1.4 101940 89
2009-02-13 09:04:47 51°13.707 2°55.758 2.5 35 1.4 101940 89
2009-02-13 09:04:52 51°13.706 2°55.752 2.7 40 1.4 101930 89
2009-02-13 09:04:57 51°13.706 2°55.747 3 40 1.4 101930 89
2009-02-13 09:05:02 51°13.706 2°55.743 2.7 39 1.4 101930 90
2009-02-13 09:05:07 51°13.706 2°55.739 2.7 32 1.4 101930 90
2009-02-13 09:05:11 51°13.706 2°55.737 2.5 29 1.4 101940 89
2009-02-13 09:05:17 51°13.706 2°55.734 2.2 30 1.4 101940 89
2009-02-13 09:05:21 51°13.706 2°55.733 2.1 36 1.4 101930 90
2009-02-13 09:05:26 51°13.706 2°55.733 1.6 32 1.4 101930 90
2009-02-13 09:05:31 51°13.707 2°55.733 1.8 36 1.4 101940 88
2009-02-13 09:05:36 51°13.708 2°55.733 1.9 34 1.4 101940 88
2009-02-13 09:05:41 51°13.709 2°55.734 1.7 44 1.4 101940 88
2009-02-13 09:05:45 51°13.71 2°55.735 1.7 35 1.4 101940 88
2009-02-13 09:05:50 51°13.712 2°55.736 1.5 35 1.4 101940 90
2009-02-13 09:05:55 51°13.714 2°55.737 1.9 36 1.4 101940 90
2009-02-13 09:06:00 51°13.716 2°55.737 1.8 23 1.4 101940 88
2009-02-13 09:06:05 51°13.718 2°55.738 1 33 1.4 101940 88
2009-02-13 09:06:10 51°13.721 2°55.739 0.9 27 1.4 101940 89
2009-02-13 09:06:14 51°13.723 2°55.739 0.8 38 1.4 101940 89
2009-02-13 09:06:19 51°13.726 2°55.738 0.7 25 1.4 101940 89
2009-02-13 09:06:25 51°13.731 2°55.737 0.5 37 1.4 101940 89
2009-02-13 09:06:29 51°13.734 2°55.736 0.6 269 1.4 101940 90
2009-02-13 09:06:34 51°13.737 2°55.734 1.5 252 1.4 101940 90
2009-02-13 09:06:39 51°13.741 2°55.731 1.4 263 1.4 101940 90
2009-02-13 09:06:43 51°13.745 2°55.729 0.9 266 1.4 101940 90
2009-02-13 09:06:49 51°13.75 2°55.724 1.1 261 1.4 101940 90
2009-02-13 09:06:54 51°13.755 2°55.719 1.3 256 1.4 101940 90
2009-02-13 09:06:58 51°13.758 2°55.715 1.9 253 1.4 101940 89
2009-02-13 09:07:04 51°13.765 2°55.708 1.4 249 1.4 101940 89
2009-02-13 09:07:08 51°13.769 2°55.703 1.2 21 1.4 101940 90
2009-02-13 09:07:14 51°13.776 2°55.695 2 252 1.4 101940 90
2009-02-13 09:07:18 51°13.781 2°55.689 2.2 19 1.4 101940 90
2009-02-13 09:07:24 51°13.788 2°55.681 1.6 247 1.4 101940 90
2009-02-13 09:07:29 51°13.795 2°55.673 1.5 248 1.4 101940 89
2009-02-13 09:07:33 51°13.801 2°55.667 1.8 37 1.4 101940 89
2009-02-13 09:07:38 51°13.809 2°55.66 1.8 285 1.5 101940 90
2009-02-13 09:07:44 51°13.818 2°55.651 1.7 325 1.5 101940 90
2009-02-13 09:07:49 51°13.827 2°55.643 1.5 328 1.5 101940 90
2009-02-13 09:07:53 51°13.834 2°55.636 1.2 326 1.5 101940 90
2009-02-13 09:07:58 51°13.843 2°55.628 2.2 278 1.4 101940 90
2009-02-13 09:08:03 51°13.853 2°55.62 2.2 316 1.4 101940 90
2009-02-13 09:08:09 51°13.864 2°55.611 1.8 26 1.5 101940 91
2009-02-13 09:08:13 51°13.872 2°55.605 2 35 1.5 101940 91
2009-02-13 09:08:18 51°13.883 2°55.598 2.3 287 1.5 101940 90
2009-02-13 09:08:24 51°13.895 2°55.588 2.6 331 1.5 101940 90
2009-02-13 09:08:29 51°13.905 2°55.581 3.2 281 1.5 101940 90
2009-02-13 09:08:33 51°13.914 2°55.574 3.7 325 1.5 101940 90
2009-02-13 09:08:37 51°13.922 2°55.568 3.5 323 1.5 101940 90
2009-02-13 09:08:44 51°13.937 2°55.556 3.3 330 1.5 101940 90
2009-02-13 09:08:49 51°13.948 2°55.548 3 328 1.5 101940 89
2009-02-13 09:08:53 51°13.957 2°55.542 2.8 38 1.5 101940 89
2009-02-13 09:08:57 51°13.965 2°55.536 2.2 25 1.5 101940 90
2009-02-13 09:09:03 51°13.978 2°55.526 2.2 318 1.5 101940 90
2009-02-13 09:09:09 51°13.991 2°55.517 2.5 316 1.5 101940 90
2009-02-13 09:09:13 51°14 2°55.511 2.3 323 1.5 101940 90
2009-02-13 09:09:18 51°14.011 2°55.503 2.7 319 1.5 101940 91
2009-02-13 09:09:23 51°14.022 2°55.495 2.4 324 1.5 101940 91
2009-02-13 09:09:29 51°14.035 2°55.486 2.6 322 1.5 101940 92
2009-02-13 09:09:33 51°14.044 2°55.48 3.2 322 1.5 101940 92
2009-02-13 09:09:37 51°14.053 2°55.473 3.4 281 1.5 101940 91
2009-02-13 09:09:43 51°14.066 2°55.463 2.7 322 1.5 101940 91
2009-02-13 09:09:49 51°14.079 2°55.453 2.8 323 1.5 101940 90
2009-02-13 09:09:53 51°14.088 2°55.446 3.2 326 1.5 101940 90
2009-02-13 09:09:57 51°14.096 2°55.439 3.1 326 1.5 101940 91
2009-02-13 09:10:03 51°14.11 2°55.428 3.5 323 1.5 101940 91
2009-02-13 09:10:08 51°14.12 2°55.419 3.7 317 1.5 101940 91
2009-02-13 09:10:13 51°14.131 2°55.41 3.5 324 1.5 101940 91
2009-02-13 09:10:18 51°14.142 2°55.401 2.9 320 1.5 101940 91
2009-02-13 09:10:23 51°14.153 2°55.392 3.6 328 1.5 101940 91
2009-02-13 09:10:29 51°14.165 2°55.38 3.2 285 1.5 101940 90
2009-02-13 09:10:33 51°14.174 2°55.371 2.2 320 1.5 101940 90
2009-02-13 09:10:38 51°14.184 2°55.361 3.4 321 1.5 101940 91
2009-02-13 09:10:44 51°14.196 2°55.347 3 316 1.5 101940 91
2009-02-13 09:10:49 51°14.207 2°55.336 3.1 286 1.5 101940 92
2009-02-13 09:10:53 51°14.214 2°55.326 2.9 31 1.5 101940 92
2009-02-13 09:10:57 51°14.222 2°55.315 2.4 26 1.5 101940 90
2009-02-13 09:11:04 51°14.235 2°55.297 1.6 319 1.5 101940 90
2009-02-13 09:11:09 51°14.244 2°55.283 1.6 329 1.6 101940 91
2009-02-13 09:11:13 51°14.252 2°55.272 3.4 324 1.6 101940 91
2009-02-13 09:11:18 51°14.261 2°55.258 3.4 327 1.5 101950 91
2009-02-13 09:11:23 51°14.27 2°55.244 4.3 324 1.5 101950 91
2009-02-13 09:11:29 51°14.28 2°55.226 4.9 323 1.5 101950 91
2009-02-13 09:11:33 51°14.287 2°55.214 4.3 324 1.5 101950 91
2009-02-13 09:11:38 51°14.296 2°55.199 5.4 283 1.5 101950 90
2009-02-13 09:11:43 51°14.305 2°55.184 5.1 318 1.5 101950 90
2009-02-13 09:11:49 51°14.315 2°55.165 4.5 320 1.5 101950 90
2009-02-13 09:11:53 51°14.322 2°55.153 5.7 322 1.5 101950 90
2009-02-13 09:11:57 51°14.329 2°55.14 6.1 279 1.6 101940 91
2009-02-13 09:12:03 51°14.339 2°55.121 5.6 323 1.6 101940 91
2009-02-13 09:12:09 51°14.349 2°55.102 5 25 1.5 101940 91
2009-02-13 09:12:13 51°14.356 2°55.089 4.2 319 1.5 101940 91
2009-02-13 09:12:19 51°14.366 2°55.069 4.1 320 1.6 101940 91
2009-02-13 09:12:23 51°14.373 2°55.056 3.7 37 1.6 101940 91
2009-02-13 09:12:28 51°14.381 2°55.039 4.2 317 1.6 101940 90
2009-02-13 09:12:33 51°14.389 2°55.022 4.2 37 1.6 101940 90
2009-02-13 09:12:38 51°14.397 2°55.004 5.3 286 1.6 101940 90
2009-02-13 09:12:43 51°14.405 2°54.988 4.7 36 1.6 101940 90
2009-02-13 09:12:49 51°14.416 2°54.969 4.6 282 1.6 101940 92
2009-02-13 09:12:53 51°14.424 2°54.957 6 37 1.6 101940 92
2009-02-13 09:12:57 51°14.432 2°54.945 5.6 24 1.6 101940 90
2009-02-13 09:13:04 51°14.447 2°54.925 5.7 34 1.6 101940 90
2009-02-13 09:13:09 51°14.457 2°54.911 4.6 19 1.6 101950 92
2009-02-13 09:13:13 51°14.466 2°54.9 5.2 31 1.6 101950 92
2009-02-13 09:13:17 51°14.475 2°54.89 5 24 1.6 101950 92
2009-02-13 09:13:23 51°14.489 2°54.875 3.9 234 1.6 101950 92
2009-02-13 09:13:29 51°14.504 2°54.862 3.5 26 1.6 101940 90
2009-02-13 09:13:33 51°14.514 2°54.855 4.5 31 1.6 101940 90
2009-02-13 09:13:38 51°14.527 2°54.846 4 19 1.6 101940 90
2009-02-13 09:13:43 51°14.54 2°54.839 3.6 31 1.6 101940 90
2009-02-13 09:13:49 51°14.556 2°54.832 3.1 280 1.6 101940 91
2009-02-13 09:13:53 51°14.567 2°54.828 3.5 32 1.6 101940 91
2009-02-13 09:13:58 51°14.581 2°54.824 3.5 279 1.6 101950 92
2009-02-13 09:14:03 51°14.595 2°54.819 3.2 30 1.6 101950 92
2009-02-13 09:14:09 51°14.611 2°54.813 3.4 26 1.6 101940 91
2009-02-13 09:14:13 51°14.622 2°54.808 4.4 31 1.6 101940 91
2009-02-13 09:14:17 51°14.633 2°54.803 4.3 279 1.6 101950 92
2009-02-13 09:14:23 51°14.649 2°54.796 4.2 36 1.6 101950 92
2009-02-13 09:14:28 51°14.663 2°54.79 3.8 26 1.6 101950 91
2009-02-13 09:14:33 51°14.677 2°54.783 4 35 1.6 101950 91
2009-02-13 09:14:38 51°14.691 2°54.776 3.5 280 1.6 101950 92
2009-02-13 09:14:43 51°14.705 2°54.77 4.5 36 1.6 101950 92
2009-02-13 09:14:49 51°14.721 2°54.762 3.6 19 1.6 101940 92
2009-02-13 09:14:53 51°14.733 2°54.756 4.9 30 1.6 101940 92
2009-02-13 09:14:58 51°14.747 2°54.75 4.3 280 1.6 101950 91
2009-02-13 09:15:03 51°14.76 2°54.743 5.2 36 1.6 101950 91
2009-02-13 09:15:09 51°14.777 2°54.734 4.2 26 1.6 101950 92
2009-02-13 09:15:13 51°14.788 2°54.729 4.6 32 1.6 101950 92
2009-02-13 09:15:17 51°14.8 2°54.723 4.3 26 1.6 101950 92
2009-02-13 09:15:24 51°14.82 2°54.713 4.2 36 1.6 101950 92
2009-02-13 09:15:28 51°14.831 2°54.707 4.8 24 1.6 101950 92
2009-02-13 09:15:33 51°14.845 2°54.7 3.7 36 1.6 101950 92
2009-02-13 09:15:38 51°14.859 2°54.693 3.9 23 1.6 101950 90
2009-02-13 09:15:44 51°14.876 2°54.684 3.6 37 1.6 101950 90
2009-02-13 09:15:49 51°14.89 2°54.676 3.8 284 1.6 101940 92
2009-02-13 09:15:53 51°14.902 2°54.671 4.1 36 1.6 101940 92
2009-02-13 09:15:58 51°14.916 2°54.664 3.8 24 1.6 101950 91
2009-02-13 09:16:04 51°14.933 2°54.655 4.6 34 1.6 101950 91
2009-02-13 09:16:09 51°14.947 2°54.648 4.7 26 1.6 101950 91
2009-02-13 09:16:13 51°14.958 2°54.642 4 32 1.6 101950 91
2009-02-13 09:16:18 51°14.972 2°54.635 3.8 21 1.6 101950 93
2009-02-13 09:16:23 51°14.986 2°54.628 4.3 36 1.6 101950 93
2009-02-13 09:16:29 51°15.003 2°54.62 3.9 284 1.6 101950 91
2009-02-13 09:16:33 51°15.014 2°54.614 4.4 39 1.6 101950 91
2009-02-13 09:16:38 51°15.028 2°54.607 3.5 285 1.6 101950 91
2009-02-13 09:16:43 51°15.042 2°54.6 4 234 1.6 101950 91
2009-02-13 09:16:49 51°15.059 2°54.592 3.6 25 1.6 101950 92
2009-02-13 09:16:53 51°15.07 2°54.587 3.8 38 1.6 101950 92
2009-02-13 09:16:58 51°15.084 2°54.58 3.6 280 1.6 101950 91
2009-02-13 09:17:03 51°15.098 2°54.573 3.4 38 1.6 101950 91
2009-02-13 09:17:09 51°15.114 2°54.565 3.4 22 1.6 101950 91
2009-02-13 09:17:13 51°15.126 2°54.56 3.3 34 1.6 101950 91
2009-02-13 09:17:18 51°15.139 2°54.553 3.5 282 1.6 101950 91
2009-02-13 09:17:23 51°15.153 2°54.546 3.6 30 1.6 101950 91
2009-02-13 09:17:29 51°15.17 2°54.537 3.8 281 1.6 101950 92
2009-02-13 09:17:33 51°15.182 2°54.532 3.8 34 1.6 101950 92
2009-02-13 09:17:38 51°15.196 2°54.525 3.7 24 1.6 101950 92
2009-02-13 09:17:44 51°15.213 2°54.516 4 32 1.6 101950 92
2009-02-13 09:17:49 51°15.227 2°54.509 3.9 284 1.6 101950 92
2009-02-13 09:17:53 51°15.238 2°54.504 3.5 35 1.6 101950 92
2009-02-13 09:17:57 51°15.249 2°54.499 3.2 21 1.6 101950 93
2009-02-13 09:18:04 51°15.27 2°54.49 4.5 35 1.6 101950 93
2009-02-13 09:18:09 51°15.284 2°54.484 3.7 22 1.6 101950 91
2009-02-13 09:18:13 51°15.296 2°54.479 4.3 32 1.6 101950 91
2009-02-13 09:18:17 51°15.307 2°54.474 3.7 25 1.6 101950 92
2009-02-13 09:18:23 51°15.324 2°54.468 3.4 34 1.6 101950 92
2009-02-13 09:18:29 51°15.341 2°54.462 3.2 25 1.6 101950 92
2009-02-13 09:18:34 51°15.356 2°54.458 3.4 33 1.6 101950 92
2009-02-13 09:18:38 51°15.367 2°54.456 2.9 22 1.6 101950 92
2009-02-13 09:18:44 51°15.385 2°54.453 3.3 33 1.6 101950 92
2009-02-13 09:18:49 51°15.399 2°54.451 2.9 19 1.6 101950 91
2009-02-13 09:18:54 51°15.414 2°54.45 2.9 37 1.6 101950 91
2009-02-13 09:18:58 51°15.425 2°54.449 2.4 279 1.6 101950 91
2009-02-13 09:19:03 51°15.44 2°54.449 2.5 316 1.6 101950 91
2009-02-13 09:19:09 51°15.457 2°54.449 3.1 317 1.6 101960 92
2009-02-13 09:19:13 51°15.469 2°54.449 3.1 37 1.6 101960 92
2009-02-13 09:19:18 51°15.483 2°54.45 3 280 1.6 101960 92
2009-02-13 09:19:23 51°15.497 2°54.45 2.7 315 1.6 101960 92
2009-02-13 09:19:29 51°15.515 2°54.451 2.8 282 1.6 101960 92
2009-02-13 09:19:33 51°15.526 2°54.451 3.4 30 1.6 101960 92
2009-02-13 09:19:37 51°15.538 2°54.451 3.6 285 1.6 101960 91
2009-02-13 09:19:44 51°15.558 2°54.452 3.1 31 1.6 101960 91
2009-02-13 09:19:49 51°15.573 2°54.452 3.4 21 1.6 101960 92
2009-02-13 09:19:53 51°15.584 2°54.452 3 37 1.6 101960 92
2009-02-13 09:19:57 51°15.596 2°54.452 3 24 1.6 101960 92
2009-02-13 09:20:04 51°15.616 2°54.452 3.1 38 1.6 101960 92
2009-02-13 09:20:09 51°15.63 2°54.452 3 25 1.6 101960 92
2009-02-13 09:20:13 51°15.642 2°54.452 2.6 34 1.6 101960 92
2009-02-13 09:20:18 51°15.656 2°54.451 2.6 20 1.6 101960 91
2009-02-13 09:20:23 51°15.671 2°54.45 2.4 37 1.6 101960 91
2009-02-13 09:20:29 51°15.687 2°54.45 2.6 287 1.6 101950 93
2009-02-13 09:20:33 51°15.698 2°54.45 2.2 36 1.6 101950 93
2009-02-13 09:20:37 51°15.709 2°54.45 1.8 279 1.6 101950 92
2009-02-13 09:20:43 51°15.724 2°54.45 2.2 38 1.6 101950 92
2009-02-13 09:20:49 51°15.739 2°54.45 2.2 25 1.6 101950 92
2009-02-13 09:20:53 51°15.749 2°54.45 2.6 31 1.6 101950 92
2009-02-13 09:20:57 51°15.758 2°54.45 2.3 25 1.6 101960 92
2009-02-13 09:21:03 51°15.772 2°54.45 2.5 31 1.6 101960 92
2009-02-13 09:21:08 51°15.783 2°54.45 2.4 25 1.6 101950 92
2009-02-13 09:21:13 51°15.793 2°54.45 1.9 242 1.6 101950 92
2009-02-13 09:21:18 51°15.804 2°54.45 2.3 280 1.6 101960 92
2009-02-13 09:21:23 51°15.814 2°54.449 2.2 246 1.6 101960 92
2009-02-13 09:21:29 51°15.826 2°54.449 2.2 18 1.6 101960 92
2009-02-13 09:21:33 51°15.834 2°54.449 2.1 254 1.6 101960 92
2009-02-13 09:21:38 51°15.844 2°54.45 1.9 281 1.7 101960 93
2009-02-13 09:21:43 51°15.853 2°54.451 1.5 253 1.7 101960 93
2009-02-13 09:21:49 51°15.864 2°54.453 1.4 280 1.6 101960 92
2009-02-13 09:21:53 51°15.871 2°54.454 1 255 1.6 101960 92
2009-02-13 09:21:59 51°15.882 2°54.456 0.9 287 1.7 101960 93
2009-02-13 09:22:04 51°15.891 2°54.459 0.6 258 1.7 101960 93
2009-02-13 09:22:08 51°15.898 2°54.46 0.6 258 1.7 101960 93
2009-02-13 09:22:13 51°15.907 2°54.462 0.5 252 1.7 101960 93
2009-02-13 09:22:18 51°15.916 2°54.465 0.5 255 1.7 101960 92
2009-02-13 09:22:24 51°15.926 2°54.468 0.7 255 1.7 101960 92
2009-02-13 09:22:29 51°15.935 2°54.471 1 280 1.7 101960 92
2009-02-13 09:22:33 51°15.942 2°54.473 0.9 246 1.7 101960 92
2009-02-13 09:22:38 51°15.95 2°54.475 1 19 1.7 101960 92
2009-02-13 09:22:43 51°15.959 2°54.478 1.1 248 1.7 101960 92
2009-02-13 09:22:49 51°15.969 2°54.481 1.2 286 1.7 101960 92
2009-02-13 09:22:53 51°15.976 2°54.483 1.3 246 1.7 101960 92
2009-02-13 09:22:57 51°15.983 2°54.485 0.9 279 1.6 101960 92
2009-02-13 09:23:03 51°15.993 2°54.488 1.4 251 1.6 101960 92
2009-02-13 09:23:09 51°16.003 2°54.492 1.4 19 1.6 101950 92
2009-02-13 09:23:13 51°16.01 2°54.493 1.2 255 1.6 101950 92
2009-02-13 09:23:17 51°16.017 2°54.495 1.4 255 1.7 101960 92
2009-02-13 09:23:23 51°16.027 2°54.498 1.5 255 1.7 101960 92
2009-02-13 09:23:28 51°16.036 2°54.5 1.3 255 1.7 101960 92
2009-02-13 09:23:33 51°16.044 2°54.503 1 254 1.7 101960 92
2009-02-13 09:23:38 51°16.053 2°54.505 1 279 1.7 101960 92
2009-02-13 09:23:43 51°16.061 2°54.508 1.2 255 1.7 101960 92
2009-02-13 09:23:49 51°16.072 2°54.51 0.9 286 1.7 101950 92
2009-02-13 09:23:53 51°16.079 2°54.513 1.1 254 1.7 101950 92
2009-02-13 09:23:57 51°16.086 2°54.514 0.9 280 1.7 101960 92
2009-02-13 09:24:04 51°16.098 2°54.518 0.9 255 1.7 101960 92
2009-02-13 09:24:09 51°16.107 2°54.521 0.9 257 1.7 101950 92
2009-02-13 09:24:13 51°16.114 2°54.522 1.2 255 1.7 101950 92
2009-02-13 09:24:17 51°16.121 2°54.524 1.4 254 1.7 101960 92
2009-02-13 09:24:24 51°16.134 2°54.528 1.3 251 1.7 101960 92
2009-02-13 09:24:29 51°16.143 2°54.531 1.4 251 1.7 101960 92
2009-02-13 09:24:33 51°16.15 2°54.533 1 250 1.7 101960 92
2009-02-13 09:24:38 51°16.159 2°54.535 1.2 250 1.7 101960 93
2009-02-13 09:24:44 51°16.17 2°54.539 0.9 250 1.7 101960 93
2009-02-13 09:24:49 51°16.179 2°54.541 0.9 283 1.7 101960 92
2009-02-13 09:24:53 51°16.186 2°54.543 1.1 251 1.7 101960 92
2009-02-13 09:24:58 51°16.195 2°54.546 1.3 283 1.7 101960 93
2009-02-13 09:25:03 51°16.204 2°54.549 1 251 1.7 101960 93
2009-02-13 09:25:09 51°16.215 2°54.552 1 251 1.7 101960 93
2009-02-13 09:25:13 51°16.222 2°54.554 0.8 254 1.7 101960 93
2009-02-13 09:25:17 51°16.229 2°54.556 0.6 283 1.7 101960 93
2009-02-13 09:25:23 51°16.24 2°54.559 0.6 265 1.7 101960 93
2009-02-13 09:25:29 51°16.25 2°54.561 0.6 265 1.7 101960 93
2009-02-13 09:25:33 51°16.256 2°54.563 1.2 35 1.7 101960 93
2009-02-13 09:25:38 51°16.263 2°54.564 1.3 283 1.7 101960 93
2009-02-13 09:25:43 51°16.27 2°54.564 1.4 266 1.7 101960 93
2009-02-13 09:25:49 51°16.278 2°54.562 1.8 254 1.7 101960 93
2009-02-13 09:25:53 51°16.283 2°54.56 1.7 259 1.7 101960 93
2009-02-13 09:25:58 51°16.289 2°54.557 2.3 282 1.7 101970 93
2009-02-13 09:26:03 51°16.294 2°54.552 2.3 260 1.7 101970 93
2009-02-13 09:26:09 51°16.3 2°54.546 2.8 252 1.7 101960 91
2009-02-13 09:26:13 51°16.303 2°54.541 3.4 253 1.7 101960 91
2009-02-13 09:26:17 51°16.307 2°54.536 4.4 282 1.7 101960 92
2009-02-13 09:26:24 51°16.312 2°54.525 4.2 255 1.7 101960 92
2009-02-13 09:26:29 51°16.315 2°54.517 3.7 252 1.7 101960 93
2009-02-13 09:26:33 51°16.317 2°54.511 3.6 246 1.7 101960 93
2009-02-13 09:26:37 51°16.319 2°54.504 4.1 248 1.7 101960 93
2009-02-13 09:26:44 51°16.321 2°54.49 4.8 243 1.7 101960 93
2009-02-13 09:26:49 51°16.323 2°54.48 4.2 20 1.7 101960 92
2009-02-13 09:26:53 51°16.323 2°54.471 4.9 36 1.7 101960 92
2009-02-13 09:26:58 51°16.323 2°54.46 4.4 22 1.7 101960 93
2009-02-13 09:27:04 51°16.323 2°54.446 5.3 33 1.7 101960 93
2009-02-13 09:27:09 51°16.321 2°54.435 5.2 22 1.7 101960 94
2009-02-13 09:27:13 51°16.32 2°54.427 4.7 31 1.7 101960 94
2009-02-13 09:27:17 51°16.318 2°54.418 4.5 285 1.7 101960 93
2009-02-13 09:27:23 51°16.315 2°54.406 5.4 319 1.7 101960 93
2009-02-13 09:27:29 51°16.311 2°54.394 4.9 281 1.7 101960 93
2009-02-13 09:27:33 51°16.308 2°54.387 5.2 324 1.7 101960 93
2009-02-13 09:27:37 51°16.305 2°54.38 4.9 281 1.7 101950 93
2009-02-13 09:27:43 51°16.3 2°54.369 5.2 328 1.7 101950 93
2009-02-13 09:27:48 51°16.296 2°54.361 5.3 329 1.7 101950 93
2009-02-13 09:27:53 51°16.292 2°54.354 4.4 326 1.7 101950 93
2009-02-13 09:27:58 51°16.288 2°54.346 5.2 281 1.7 101960 92
2009-02-13 09:28:03 51°16.284 2°54.34 4.8 326 1.7 101960 92
2009-02-13 09:28:09 51°16.281 2°54.333 4.4 324 1.7 101960 93
2009-02-13 09:28:13 51°16.279 2°54.328 4.9 325 1.7 101960 93
2009-02-13 09:28:17 51°16.277 2°54.324 3.9 286 1.7 101950 92
2009-02-13 09:28:23 51°16.275 2°54.32 4.3 322 1.7 101950 92
2009-02-13 09:28:29 51°16.273 2°54.316 4.3 284 1.7 101960 93
2009-02-13 09:28:33 51°16.273 2°54.314 4.1 319 1.7 101960 93
2009-02-13 09:28:37 51°16.272 2°54.312 3.6 279 1.7 101960 94
2009-02-13 09:28:44 51°16.27 2°54.308 3.8 318 1.7 101960 94
2009-02-13 09:28:48 51°16.27 2°54.306 4.1 320 1.7 101960 93
2009-02-13 09:28:53 51°16.269 2°54.304 3.9 322 1.7 101960 93
2009-02-13 09:28:58 51°16.268 2°54.301 3.7 282 1.7 101960 94
2009-02-13 09:29:04 51°16.267 2°54.298 3.2 320 1.7 101960 94
2009-02-13 09:29:09 51°16.266 2°54.296 3.3 316 1.7 101960 93
2009-02-13 09:29:13 51°16.266 2°54.294 3.7 316 1.7 101960 93
2009-02-13 09:29:18 51°16.265 2°54.293 3.8 316 1.7 101960 93
2009-02-13 09:29:23 51°16.264 2°54.29 3.6 316 1.7 101960 93
2009-02-13 09:29:29 51°16.263 2°54.288 3.2 282 1.7 101960 94
2009-02-13 09:29:33 51°16.263 2°54.286 3.2 319 1.7 101960 94
2009-02-13 09:29:38 51°16.262 2°54.284 3.4 284 1.7 101960 94
2009-02-13 09:29:43 51°16.262 2°54.282 3.8 318 1.7 101960 94
2009-02-13 09:29:49 51°16.26 2°54.28 4.1 26 1.7 101960 93
2009-02-13 09:29:53 51°16.26 2°54.278 3.5 36 1.7 101960 93
2009-02-13 09:29:58 51°16.259 2°54.276 3.1 286 1.7 101960 92
2009-02-13 09:30:03 51°16.259 2°54.274 4 37 1.7 101960 92
2009-02-13 09:30:09 51°16.258 2°54.272 3.8 23 1.7 101960 94
2009-02-13 09:30:13 51°16.257 2°54.27 3.1 35 1.7 101960 94
2009-02-13 09:30:17 51°16.257 2°54.269 3.2 280 1.7 101960 92
2009-02-13 09:30:23 51°16.256 2°54.266 4.2 37 1.7 101960 92
2009-02-13 09:30:28 51°16.255 2°54.264 4.1 280 1.7 101960 93
2009-02-13 09:30:33 51°16.254 2°54.262 3.1 36 1.7 101960 93
2009-02-13 09:30:38 51°16.254 2°54.26 3.5 282 1.7 101960 92
2009-02-13 09:30:43 51°16.253 2°54.258 4 37 1.7 101960 92
2009-02-13 09:30:49 51°16.252 2°54.256 3.4 280 1.7 101960 93
2009-02-13 09:30:53 51°16.252 2°54.254 4.1 35 1.7 101960 93
2009-02-13 09:30:58 51°16.251 2°54.252 4.2 283 1.7 101960 93
2009-02-13 09:31:04 51°16.25 2°54.249 3.6 38 1.7 101960 93
2009-02-13 09:31:09 51°16.25 2°54.247 3.7 25 1.7 101960 92
2009-02-13 09:31:13 51°16.249 2°54.246 4.4 31 1.7 101960 92
2009-02-13 09:31:17 51°16.249 2°54.244 4.4 25 1.7 101960 92
2009-02-13 09:31:24 51°16.248 2°54.241 4 32 1.7 101960 92
2009-02-13 09:31:29 51°16.247 2°54.239 4 280 1.7 101960 93
2009-02-13 09:31:33 51°16.247 2°54.237 3 37 1.7 101960 93
2009-02-13 09:31:37 51°16.247 2°54.235 3.4 280 1.7 101960 93
2009-02-13 09:31:43 51°16.246 2°54.233 4 36 1.7 101960 93
2009-02-13 09:31:49 51°16.245 2°54.231 3.8 19 1.7 101970 93
2009-02-13 09:31:53 51°16.245 2°54.229 3.9 32 1.7 101970 93
2009-02-13 09:31:58 51°16.244 2°54.227 3.5 282 1.7 101970 93
2009-02-13 09:32:03 51°16.244 2°54.225 3.9 236 1.7 101970 93
2009-02-13 09:32:09 51°16.243 2°54.222 3.5 23 1.7 101970 93
2009-02-13 09:32:13 51°16.242 2°54.221 3.4 238 1.7 101970 93
2009-02-13 09:32:17 51°16.242 2°54.219 3.9 283 1.7 101960 93
2009-02-13 09:32:23 51°16.241 2°54.216 3.9 239 1.7 101960 93
2009-02-13 09:32:29 51°16.24 2°54.214 4.3 25 1.7 101960 93
2009-02-13 09:32:33 51°16.24 2°54.213 3.6 240 1.7 101960 93
2009-02-13 09:32:37 51°16.239 2°54.211 3.3 284 1.7 101960 93
2009-02-13 09:32:43 51°16.239 2°54.208 3.5 241 1.7 101960 93
2009-02-13 09:32:48 51°16.238 2°54.206 4.1 26 1.7 101960 92
2009-02-13 09:32:53 51°16.238 2°54.204 4.2 243 1.7 101960 92
2009-02-13 09:32:58 51°16.237 2°54.202 3.4 283 1.7 101970 93
2009-02-13 09:33:03 51°16.237 2°54.2 3.8 242 1.7 101970 93
2009-02-13 09:33:09 51°16.236 2°54.198 4.1 22 1.7 101960 93
2009-02-13 09:33:13 51°16.235 2°54.196 3.9 244 1.7 101960 93
2009-02-13 09:33:18 51°16.234 2°54.194 3.8 26 1.7 101960 93
2009-02-13 09:33:24 51°16.234 2°54.192 3.7 245 1.7 101960 93
2009-02-13 09:33:29 51°16.233 2°54.19 4.2 281 1.7 101960 94
2009-02-13 09:33:33 51°16.232 2°54.188 4.2 244 1.7 101960 94
2009-02-13 09:33:37 51°16.232 2°54.186 3.4 20 1.7 101960 93
2009-02-13 09:33:44 51°16.231 2°54.183 3.8 245 1.7 101960 93
2009-02-13 09:33:49 51°16.23 2°54.181 3.4 285 1.7 101960 93
2009-02-13 09:33:53 51°16.23 2°54.179 3.3 248 1.7 101960 93
2009-02-13 09:33:57 51°16.229 2°54.178 3.7 280 1.7 101960 93
2009-02-13 09:34:03 51°16.228 2°54.175 4.3 247 1.7 101960 93
2009-02-13 09:34:09 51°16.228 2°54.173 3.5 249 1.7 101970 93
2009-02-13 09:34:13 51°16.227 2°54.171 3.4 247 1.7 101970 93
2009-02-13 09:34:18 51°16.226 2°54.169 3.5 286 1.7 101960 94
2009-02-13 09:34:23 51°16.225 2°54.167 3.7 245 1.7 101960 94
2009-02-13 09:34:29 51°16.224 2°54.164 4.1 23 1.7 101960 93
2009-02-13 09:34:33 51°16.224 2°54.163 3.3 248 1.7 101960 93
2009-02-13 09:34:37 51°16.223 2°54.161 4.2 285 1.7 101960 94
2009-02-13 09:34:43 51°16.222 2°54.159 4.1 248 1.7 101960 94
2009-02-13 09:34:49 51°16.221 2°54.156 3.6 249 1.7 101960 92
2009-02-13 09:34:53 51°16.221 2°54.154 3.8 249 1.7 101960 92
2009-02-13 09:34:57 51°16.22 2°54.153 4.6 281 1.7 101960 93
2009-02-13 09:35:04 51°16.219 2°54.15 3.5 252 1.7 101960 93
2009-02-13 09:35:08 51°16.218 2°54.148 4.3 253 1.7 101960 93
2009-02-13 09:35:13 51°16.218 2°54.146 4.7 253 1.7 101960 93
2009-02-13 09:35:18 51°16.217 2°54.144 4.8 285 1.7 101970 93
2009-02-13 09:35:23 51°16.216 2°54.141 4.6 256 1.7 101970 93
2009-02-13 09:35:29 51°16.215 2°54.139 4.3 284 1.7 101960 93
2009-02-13 09:35:33 51°16.215 2°54.137 4.4 255 1.7 101960 93
2009-02-13 09:35:38 51°16.214 2°54.135 4.4 255 1.7 101960 94
2009-02-13 09:35:44 51°16.213 2°54.132 4.7 255 1.7 101960 94
2009-02-13 09:35:49 51°16.212 2°54.131 4.5 282 1.7 101960 93
2009-02-13 09:35:53 51°16.211 2°54.129 4.4 254 1.7 101960 93
2009-02-13 09:35:57 51°16.211 2°54.127 3.9 255 1.7 101970 94
2009-02-13 09:36:04 51°16.21 2°54.124 4.9 254 1.7 101970 94
2009-02-13 09:36:09 51°16.209 2°54.122 4.6 253 1.7 101960 94
2009-02-13 09:36:13 51°16.209 2°54.12 4.3 252 1.7 101960 94
2009-02-13 09:36:18 51°16.208 2°54.118 3.6 252 1.7 101960 94
2009-02-13 09:36:23 51°16.207 2°54.116 3.7 254 1.7 101960 94
2009-02-13 09:36:29 51°16.206 2°54.113 3.7 281 1.7 101970 94
2009-02-13 09:36:33 51°16.205 2°54.111 3.9 258 1.7 101970 94
2009-02-13 09:36:38 51°16.204 2°54.109 3.5 286 1.7 101960 94
2009-02-13 09:36:43 51°16.204 2°54.107 3.4 258 1.7 101960 94
2009-02-13 09:36:49 51°16.203 2°54.104 3.2 255 1.7 101960 92
2009-02-13 09:36:53 51°16.202 2°54.102 3.8 258 1.7 101960 92
2009-02-13 09:36:57 51°16.201 2°54.101 3.1 279 1.7 101960 94
2009-02-13 09:37:03 51°16.2 2°54.098 3.2 259 1.7 101960 94
2009-02-13 09:37:09 51°16.199 2°54.096 3.4 259 1.7 101970 94
2009-02-13 09:37:14 51°16.198 2°54.095 2.9 262 1.7 101970 94
2009-02-13 09:37:17 51°16.197 2°54.094 3.1 286 1.7 101970 93
2009-02-13 09:37:24 51°16.195 2°54.093 2.7 265 1.7 101970 93
2009-02-13 09:37:28 51°16.193 2°54.093 3.4 266 1.7 101970 94
2009-02-13 09:37:33 51°16.191 2°54.093 3.3 269 1.7 101970 94
2009-02-13 09:37:38 51°16.189 2°54.093 3.5 280 1.7 101970 94
2009-02-13 09:37:44 51°16.186 2°54.094 3.9 272 1.7 101970 94
2009-02-13 09:37:50 51°16.183 2°54.096 3.8 30 1.7 101970 94
2009-02-13 09:37:55 51°16.18 2°54.097 3.7 13 1.7 101970 94
2009-02-13 09:38:01 51°16.176 2°54.098 3.6 280 1.7 101970 93
2009-02-13 09:38:07 51°16.172 2°54.1 3.6 34 1.7 101970 93
2009-02-13 09:38:12 51°16.169 2°54.101 4 23 1.7 101970 94
2009-02-13 09:38:17 51°16.166 2°54.102 3.5 33 1.7 101970 94
2009-02-13 09:38:22 51°16.162 2°54.103 3.4 27 1.7 101970 94
2009-02-13 09:38:28 51°16.159 2°54.103 3.7 36 1.7 101970 94
2009-02-13 09:38:32 51°16.157 2°54.104 3.6 76 1.7 101960 93
2009-02-13 09:38:37 51°16.155 2°54.103 3.7 7 1.7 101960 93
2009-02-13 09:38:42 51°16.153 2°54.102 3.6 285 1.7 101970 93
2009-02-13 09:38:47 51°16.151 2°54.101 3.5 270 1.7 101970 93
2009-02-13 09:38:52 51°16.15 2°54.099 3.3 283 1.7 101970 94
2009-02-13 09:38:57 51°16.149 2°54.096 2.8 40 1.7 101970 94
2009-02-13 09:39:01 51°16.149 2°54.094 3.1 26 1.7 101970 93
2009-02-13 09:39:06 51°16.15 2°54.092 2.7 37 1.7 101970 93
2009-02-13 09:39:11 51°16.151 2°54.089 2.8 20 1.7 101960 94
2009-02-13 09:39:16 51°16.152 2°54.086 2.2 36 1.7 101960 94
2009-02-13 09:39:21 51°16.155 2°54.084 2.5 79 1.7 101960 94
2009-02-13 09:39:26 51°16.157 2°54.083 2.1 35 1.7 101960 94
2009-02-13 09:39:30 51°16.159 2°54.082 1.7 20 1.7 101960 93
2009-02-13 09:39:35 51°16.162 2°54.082 1.5 36 1.7 101960 93
2009-02-13 09:39:40 51°16.164 2°54.083 0.9 19 1.7 101960 93
2009-02-13 09:39:45 51°16.167 2°54.084 0.5 13 1.7 101960 93
2009-02-13 09:39:50 51°16.169 2°54.087 0.4 14 1.7 101960 95
2009-02-13 09:39:55 51°16.171 2°54.09 0.6 32 1.7 101960 95
2009-02-13 09:40:00 51°16.173 2°54.093 1.5 16 1.7 101960 94
2009-02-13 09:40:05 51°16.175 2°54.098 2.4 28 1.7 101960 94
2009-02-13 09:40:09 51°16.176 2°54.101 2.1 32 1.7 101960 94
2009-02-13 09:40:14 51°16.177 2°54.106 1.7 31 1.7 101960 94
2009-02-13 09:40:19 51°16.179 2°54.111 2 30 1.7 101960 92
2009-02-13 09:40:24 51°16.18 2°54.116 1.7 34 1.7 101960 92
2009-02-13 09:40:29 51°16.182 2°54.12 1.6 40 1.7 101960 94
2009-02-13 09:40:33 51°16.184 2°54.124 1.4 42 1.7 101960 94
2009-02-13 09:40:38 51°16.186 2°54.128 1.3 42 1.7 101960 94
2009-02-13 09:40:44 51°16.189 2°54.133 1 37 1.7 101960 94
2009-02-13 09:40:49 51°16.192 2°54.136 0.8 81 1.7 101970 93
2009-02-13 09:40:53 51°16.195 2°54.139 0.7 36 1.7 101970 93
2009-02-13 09:40:57 51°16.198 2°54.141 0.4 74 1.7 101970 94
2009-02-13 09:41:03 51°16.203 2°54.144 0.4 36 1.7 101970 94
2009-02-13 09:41:09 51°16.207 2°54.147 0.4 24 1.7 101970 93
2009-02-13 09:41:13 51°16.21 2°54.15 0.7 30 1.7 101970 93
2009-02-13 09:41:18 51°16.213 2°54.153 0.9 28 1.7 101970 94
2009-02-13 09:41:23 51°16.215 2°54.157 1.6 31 1.7 101970 94
2009-02-13 09:41:29 51°16.218 2°54.162 2 32 1.7 101970 94
2009-02-13 09:41:33 51°16.22 2°54.166 1.8 30 1.7 101970 94
2009-02-13 09:41:38 51°16.221 2°54.171 1.9 32 1.7 101970 94
2009-02-13 09:41:43 51°16.222 2°54.176 1.9 28 1.7 101970 94
2009-02-13 09:41:49 51°16.223 2°54.183 1.6 25 1.8 101970 94
2009-02-13 09:41:54 51°16.224 2°54.188 1.7 27 1.8 101970 94
2009-02-13 09:41:57 51°16.224 2°54.191 2 23 1.7 101970 94
2009-02-13 09:42:04 51°16.226 2°54.199 1.9 26 1.7 101970 94
2009-02-13 09:42:09 51°16.227 2°54.204 1.8 29 1.7 101970 94
2009-02-13 09:42:13 51°16.228 2°54.207 1.9 22 1.7 101970 94
2009-02-13 09:42:19 51°16.23 2°54.213 2 28 1.8 101970 94
2009-02-13 09:42:24 51°16.231 2°54.217 1.5 26 1.8 101970 94
2009-02-13 09:42:29 51°16.233 2°54.221 1.3 26 1.8 101970 94
2009-02-13 09:42:33 51°16.234 2°54.224 1.4 36 1.8 101970 94
2009-02-13 09:42:38 51°16.236 2°54.228 1.3 36 1.8 101970 94
2009-02-13 09:42:44 51°16.238 2°54.232 1.4 35 1.8 101970 94
2009-02-13 09:42:49 51°16.24 2°54.236 1.6 36 1.8 101970 94
2009-02-13 09:42:53 51°16.241 2°54.239 1.5 38 1.8 101970 94
2009-02-13 09:42:57 51°16.242 2°54.241 1.8 36 1.8 101970 94
2009-02-13 09:43:03 51°16.244 2°54.245 1.9 37 1.8 101970 94
2009-02-13 09:43:09 51°16.246 2°54.249 1.8 38 1.8 101970 94
2009-02-13 09:43:13 51°16.247 2°54.252 2.2 42 1.8 101970 94
2009-02-13 09:43:17 51°16.248 2°54.254 2.1 33 1.8 101970 94
2009-02-13 09:43:23 51°16.249 2°54.258 1.7 37 1.8 101970 94
2009-02-13 09:43:29 51°16.251 2°54.261 2 35 1.8 101980 94
2009-02-13 09:43:33 51°16.251 2°54.263 1.7 37 1.8 101980 94
2009-02-13 09:43:38 51°16.253 2°54.265 2.3 41 1.7 101970 94
2009-02-13 09:43:43 51°16.254 2°54.268 2.5 41 1.7 101970 94
2009-02-13 09:43:49 51°16.255 2°54.271 2.6 37 1.7 101980 94
2009-02-13 09:43:53 51°16.255 2°54.273 2.6 40 1.7 101980 94
2009-02-13 09:43:57 51°16.256 2°54.275 2.7 35 1.7 101970 94
2009-02-13 09:44:03 51°16.257 2°54.279 2.2 38 1.7 101970 94
2009-02-13 09:44:09 51°16.257 2°54.281 2.4 36 1.8 101970 94
2009-02-13 09:44:13 51°16.258 2°54.283 2.9 38 1.8 101970 94
2009-02-13 09:44:17 51°16.258 2°54.285 2.5 35 1.8 101980 93
2009-02-13 09:44:24 51°16.258 2°54.288 2.3 37 1.8 101980 93
2009-02-13 09:44:28 51°16.259 2°54.289 2.6 34 1.7 101970 93
2009-02-13 09:44:33 51°16.259 2°54.291 2.1 39 1.7 101970 93
2009-02-13 09:44:38 51°16.259 2°54.293 2.2 37 1.7 101970 94
2009-02-13 09:44:44 51°16.259 2°54.295 2.2 43 1.7 101970 94
2009-02-13 09:44:49 51°16.259 2°54.297 2.1 39 1.7 101970 94
2009-02-13 09:44:53 51°16.26 2°54.298 1.9 38 1.7 101970 94
2009-02-13 09:44:58 51°16.259 2°54.299 2.3 37 1.7 101970 94
2009-02-13 09:45:04 51°16.26 2°54.301 2.4 36 1.7 101970 94
2009-02-13 09:45:09 51°16.26 2°54.302 2.4 37 1.7 101970 94
2009-02-13 09:45:13 51°16.259 2°54.303 2.3 37 1.7 101970 94
2009-02-13 09:45:17 51°16.26 2°54.303 2.6 40 1.7 101970 94
2009-02-13 09:45:24 51°16.259 2°54.305 2.6 36 1.7 101970 94
2009-02-13 09:45:29 51°16.259 2°54.306 2.7 35 1.7 101980 93
2009-02-13 09:45:33 51°16.259 2°54.306 2.9 33 1.7 101980 93
2009-02-13 09:45:37 51°16.259 2°54.307 2.9 36 1.7 101970 94
2009-02-13 09:45:43 51°16.258 2°54.308 2.9 40 1.7 101970 94
2009-02-13 09:45:49 51°16.258 2°54.309 2.9 37 1.7 101970 94
2009-02-13 09:45:53 51°16.258 2°54.309 3 35 1.7 101970 94
2009-02-13 09:45:58 51°16.258 2°54.31 3 36 1.7 101970 94
2009-02-13 09:46:03 51°16.257 2°54.31 2.5 36 1.7 101970 94
2009-02-13 09:46:09 51°16.257 2°54.311 2.7 35 1.7 101970 94
2009-02-13 09:46:13 51°16.257 2°54.311 2.6 36 1.7 101970 94
2009-02-13 09:46:17 51°16.257 2°54.311 2.7 38 1.7 101970 93
2009-02-13 09:46:23 51°16.256 2°54.311 2.9 40 1.7 101970 93
2009-02-13 09:46:29 51°16.256 2°54.311 2.6 38 1.7 101970 94
2009-02-13 09:46:34 51°16.256 2°54.311 2.5 38 1.7 101970 94
2009-02-13 09:46:37 51°16.255 2°54.311 2.9 35 1.7 101970 95
2009-02-13 09:46:44 51°16.255 2°54.311 2.5 38 1.7 101970 95
2009-02-13 09:46:48 51°16.255 2°54.311 2.7 36 1.7 101970 94
2009-02-13 09:46:53 51°16.254 2°54.311 2.7 34 1.7 101970 94
2009-02-13 09:46:58 51°16.254 2°54.311 2.9 33 1.7 101970 94
2009-02-13 09:47:04 51°16.253 2°54.31 2.6 35 1.7 101970 94
2009-02-13 09:47:09 51°16.253 2°54.31 2.9 36 1.7 101970 94
2009-02-13 09:47:13 51°16.253 2°54.309 2.6 35 1.7 101970 94
2009-02-13 09:47:18 51°16.252 2°54.309 2.6 35 1.7 101970 94
2009-02-13 09:47:24 51°16.252 2°54.308 2.6 34 1.7 101970 94
2009-02-13 09:47:29 51°16.251 2°54.308 2.3 36 1.7 101970 94
2009-02-13 09:47:33 51°16.251 2°54.308 2.7 35 1.7 101970 94
2009-02-13 09:47:37 51°16.25 2°54.307 2.5 36 1.7 101970 94
2009-02-13 09:47:44 51°16.25 2°54.306 2.7 34 1.7 101970 94
2009-02-13 09:47:49 51°16.249 2°54.306 2.6 34 1.7 101970 94
2009-02-13 09:47:53 51°16.249 2°54.305 2.6 35 1.7 101970 94
2009-02-13 09:47:58 51°16.248 2°54.305 2.7 37 1.7 101980 94
2009-02-13 09:48:03 51°16.248 2°54.304 2.7 34 1.7 101980 94
2009-02-13 09:48:09 51°16.247 2°54.303 2.8 34 1.7 101970 95
2009-02-13 09:48:13 51°16.247 2°54.302 2.8 33 1.7 101970 95
2009-02-13 09:48:18 51°16.246 2°54.301 2.7 36 1.7 101970 94
2009-02-13 09:48:23 51°16.245 2°54.3 2.8 34 1.7 101970 94
2009-02-13 09:48:29 51°16.245 2°54.299 2.7 33 1.7 101970 94
2009-02-13 09:48:33 51°16.244 2°54.298 2.9 33 1.7 101970 94
2009-02-13 09:48:37 51°16.243 2°54.298 3 32 1.7 101970 93
2009-02-13 09:48:44 51°16.243 2°54.296 3 33 1.7 101970 93
2009-02-13 09:48:49 51°16.242 2°54.295 2.9 32 1.7 101970 94
2009-02-13 09:48:53 51°16.241 2°54.294 2.9 32 1.7 101970 94
2009-02-13 09:48:59 51°16.241 2°54.293 3 34 1.7 101970 94
2009-02-13 09:49:04 51°16.24 2°54.292 2.9 35 1.7 101970 94
2009-02-13 09:49:08 51°16.239 2°54.291 3.1 30 1.7 101970 94
2009-02-13 09:49:13 51°16.239 2°54.29 2.9 33 1.7 101970 94
2009-02-13 09:49:18 51°16.238 2°54.289 2.8 35 1.7 101970 93
2009-02-13 09:49:24 51°16.237 2°54.288 2.4 34 1.7 101970 93
2009-02-13 09:49:29 51°16.236 2°54.286 2.4 34 1.7 101970 93
2009-02-13 09:49:33 51°16.236 2°54.285 2.8 32 1.7 101970 93
2009-02-13 09:49:37 51°16.235 2°54.284 2.9 29 1.7 101970 94
2009-02-13 09:49:44 51°16.234 2°54.283 2.8 32 1.7 101970 94
2009-02-13 09:49:49 51°16.233 2°54.282 2.5 33 1.7 101970 94
2009-02-13 09:49:53 51°16.232 2°54.281 2.7 29 1.7 101970 94
2009-02-13 09:49:57 51°16.232 2°54.28 3 27 1.7 101970 95
2009-02-13 09:50:03 51°16.231 2°54.278 2.9 29 1.7 101970 95
2009-02-13 09:50:09 51°16.23 2°54.277 2.9 28 1.7 101970 94
2009-02-13 09:50:13 51°16.229 2°54.276 2.9 29 1.7 101970 94
2009-02-13 09:50:18 51°16.228 2°54.274 2.6 31 1.7 101970 95
2009-02-13 09:50:23 51°16.228 2°54.273 3.3 27 1.7 101970 95
2009-02-13 09:50:29 51°16.226 2°54.271 3.1 29 1.7 101970 94
2009-02-13 09:50:33 51°16.226 2°54.27 3.1 27 1.7 101970 94
2009-02-13 09:50:37 51°16.225 2°54.269 3.1 29 1.7 101970 94
2009-02-13 09:50:43 51°16.224 2°54.267 3.2 28 1.7 101970 94
2009-02-13 09:50:49 51°16.223 2°54.266 3.2 30 1.7 101970 94
2009-02-13 09:50:54 51°16.222 2°54.264 3.5 28 1.7 101970 94
2009-02-13 09:50:57 51°16.221 2°54.263 3.2 30 1.7 101970 95
2009-02-13 09:51:04 51°16.221 2°54.261 3.1 26 1.7 101970 95
2009-02-13 09:51:08 51°16.22 2°54.26 3 29 1.7 101970 94
2009-02-13 09:51:13 51°16.219 2°54.258 3.3 30 1.7 101970 94
2009-02-13 09:51:18 51°16.218 2°54.257 3.3 28 1.7 101970 94
2009-02-13 09:51:23 51°16.217 2°54.256 3.5 31 1.7 101970 94
2009-02-13 09:51:29 51°16.216 2°54.254 3.3 32 1.7 101970 94
2009-02-13 09:51:33 51°16.215 2°54.252 3.1 32 1.7 101970 94
2009-02-13 09:51:38 51°16.214 2°54.251 3.3 28 1.7 101970 94
2009-02-13 09:51:44 51°16.214 2°54.249 3.2 29 1.7 101970 94
2009-02-13 09:51:49 51°16.212 2°54.248 3.3 28 1.7 101970 94
2009-02-13 09:51:53 51°16.212 2°54.246 3.2 27 1.7 101970 94
2009-02-13 09:51:57 51°16.211 2°54.245 3.1 28 1.7 101970 93
2009-02-13 09:52:04 51°16.21 2°54.243 3.2 28 1.7 101970 93
2009-02-13 09:52:09 51°16.209 2°54.241 3.1 25 1.7 101970 94
2009-02-13 09:52:13 51°16.208 2°54.24 3.1 26 1.7 101970 94
2009-02-13 09:52:18 51°16.207 2°54.238 3 26 1.7 101970 95
2009-02-13 09:52:24 51°16.206 2°54.237 3.3 27 1.7 101970 95
2009-02-13 09:52:29 51°16.205 2°54.235 3.3 27 1.7 101970 94
2009-02-13 09:52:34 51°16.204 2°54.233 2.8 26 1.7 101970 94
2009-02-13 09:52:38 51°16.203 2°54.232 2.6 28 1.7 101980 93
2009-02-13 09:52:44 51°16.202 2°54.23 2.8 26 1.7 101980 93
2009-02-13 09:52:49 51°16.201 2°54.228 2.3 26 1.7 101970 95
2009-02-13 09:52:53 51°16.2 2°54.227 2.6 29 1.7 101970 95
2009-02-13 09:52:58 51°16.199 2°54.225 2.6 28 1.7 101980 93
2009-02-13 09:53:04 51°16.198 2°54.223 2.7 28 1.7 101980 93
2009-02-13 09:53:09 51°16.197 2°54.221 2.8 28 1.7 101980 94
2009-02-13 09:53:13 51°16.196 2°54.22 2.5 27 1.7 101980 94
2009-02-13 09:53:18 51°16.195 2°54.218 2.5 29 1.7 101970 94
2009-02-13 09:53:23 51°16.194 2°54.216 2.5 27 1.7 101970 94
2009-02-13 09:53:29 51°16.193 2°54.214 2.4 26 1.7 101970 94
2009-02-13 09:53:33 51°16.192 2°54.213 2.6 27 1.7 101970 94
2009-02-13 09:53:39 51°16.191 2°54.21 2.3 28 1.7 101980 94
2009-02-13 09:53:44 51°16.19 2°54.209 2.6 26 1.7 101980 94
2009-02-13 09:53:49 51°16.189 2°54.207 2.3 25 1.7 101970 93
2009-02-13 09:53:53 51°16.188 2°54.205 2.7 26 1.7 101970 93
2009-02-13 09:53:57 51°16.187 2°54.204 2.5 24 1.7 101980 94
2009-02-13 09:54:04 51°16.186 2°54.201 2.9 24 1.7 101980 94
2009-02-13 09:54:09 51°16.185 2°54.199 2.8 26 1.7 101980 94
2009-02-13 09:54:13 51°16.184 2°54.198 2.7 25 1.7 101980 94
2009-02-13 09:54:18 51°16.183 2°54.196 3 21 1.7 101980 94
2009-02-13 09:54:24 51°16.182 2°54.194 3 23 1.7 101980 94
2009-02-13 09:54:29 51°16.18 2°54.192 3.1 25 1.7 101970 94
2009-02-13 09:54:33 51°16.18 2°54.19 2.9 24 1.7 101970 94
2009-02-13 09:54:38 51°16.179 2°54.188 3.1 24 1.7 101980 94
2009-02-13 09:54:43 51°16.178 2°54.187 3.2 25 1.7 101980 94
2009-02-13 09:54:49 51°16.176 2°54.184 2.9 26 1.7 101980 94
2009-02-13 09:54:53 51°16.176 2°54.183 3.2 23 1.7 101980 94
2009-02-13 09:54:57 51°16.175 2°54.181 3.2 22 1.7 101980 94
2009-02-13 09:55:03 51°16.173 2°54.179 3.3 20 1.7 101980 94
2009-02-13 09:55:09 51°16.172 2°54.177 2.9 22 1.7 101980 94
2009-02-13 09:55:14 51°16.171 2°54.174 3 22 1.7 101980 94
2009-02-13 09:55:19 51°16.17 2°54.173 2.8 25 1.7 101980 94
2009-02-13 09:55:24 51°16.169 2°54.171 2.7 23 1.7 101980 94
2009-02-13 09:55:28 51°16.168 2°54.169 3 23 1.8 101980 94
2009-02-13 09:55:33 51°16.167 2°54.167 3.1 23 1.8 101980 94
2009-02-13 09:55:39 51°16.166 2°54.165 3.2 22 1.8 101980 94
2009-02-13 09:55:43 51°16.165 2°54.163 3 24 1.8 101980 94
2009-02-13 09:55:49 51°16.164 2°54.161 3 24 1.8 101980 94
2009-02-13 09:55:53 51°16.163 2°54.159 3 25 1.8 101980 94
2009-02-13 09:55:59 51°16.162 2°54.157 2.8 24 1.8 101980 93
2009-02-13 09:56:04 51°16.161 2°54.155 2.7 22 1.8 101980 93
2009-02-13 09:56:09 51°16.159 2°54.153 2.7 22 1.8 101980 94
2009-02-13 09:56:13 51°16.159 2°54.151 2.9 25 1.8 101980 94
2009-02-13 09:56:19 51°16.157 2°54.149 3.1 26 1.7 101980 93
2009-02-13 09:56:24 51°16.156 2°54.148 2.8 26 1.7 101980 93
2009-02-13 09:56:29 51°16.155 2°54.147 2.8 26 1.7 101980 94
2009-02-13 09:56:33 51°16.154 2°54.146 2.7 26 1.7 101980 94
2009-02-13 09:56:38 51°16.152 2°54.146 2.5 27 1.8 101980 95
2009-02-13 09:56:44 51°16.151 2°54.147 2.5 28 1.8 101980 95
2009-02-13 09:56:49 51°16.15 2°54.147 2.2 31 1.7 101980 94
2009-02-13 09:56:53 51°16.15 2°54.148 2.3 31 1.7 101980 94
2009-02-13 09:56:58 51°16.149 2°54.149 2.1 34 1.7 101980 95
2009-02-13 09:57:03 51°16.149 2°54.15 2 36 1.7 101980 95
2009-02-13 09:57:09 51°16.148 2°54.152 1.9 38 1.8 101980 94
2009-02-13 09:57:13 51°16.148 2°54.153 2.1 37 1.8 101980 94
2009-02-13 09:57:17 51°16.148 2°54.154 1.8 39 1.7 101980 94
2009-02-13 09:57:23 51°16.149 2°54.156 1.7 40 1.7 101980 94
2009-02-13 09:57:29 51°16.149 2°54.158 1.4 24 1.7 101990 95
2009-02-13 09:57:34 51°16.15 2°54.16 1.3 44 1.7 101990 95
2009-02-13 09:57:39 51°16.151 2°54.162 1.4 42 1.7 101990 94
2009-02-13 09:57:44 51°16.152 2°54.164 1.3 43 1.7 101990 94
2009-02-13 09:57:48 51°16.153 2°54.166 1.2 41 1.8 101990 94
2009-02-13 09:57:53 51°16.155 2°54.169 1.4 35 1.8 101990 94
2009-02-13 09:57:59 51°16.156 2°54.172 1.3 36 1.7 101980 94
2009-02-13 09:58:04 51°16.158 2°54.175 1.1 33 1.7 101980 94
2009-02-13 09:58:09 51°16.16 2°54.179 1.2 33 1.7 101990 94
2009-02-13 09:58:13 51°16.161 2°54.182 1.2 38 1.7 101990 94
2009-02-13 09:58:19 51°16.165 2°54.187 1.1 39 1.7 101980 94
2009-02-13 09:58:24 51°16.168 2°54.191 1.1 39 1.7 101980 94
2009-02-13 09:58:29 51°16.171 2°54.195 0.9 45 1.7 101980 94
2009-02-13 09:58:33 51°16.174 2°54.199 0.7 37 1.7 101980 94
2009-02-13 09:58:37 51°16.177 2°54.202 0.7 40 1.7 101980 94
2009-02-13 09:58:44 51°16.182 2°54.208 0.4 39 1.7 101980 94
2009-02-13 09:58:49 51°16.187 2°54.212 0.4 37 1.7 101990 94
2009-02-13 09:58:53 51°16.19 2°54.215 0.3 36 1.7 101990 94
2009-02-13 09:58:58 51°16.195 2°54.219 0.3 36 1.8 101980 94
2009-02-13 09:59:04 51°16.2 2°54.225 0.8 26 1.8 101980 94
2009-02-13 09:59:09 51°16.204 2°54.23 0.8 36 1.7 101990 94
2009-02-13 09:59:13 51°16.207 2°54.234 0.8 26 1.7 101990 94
2009-02-13 09:59:17 51°16.209 2°54.239 0.8 25 1.7 101990 94
2009-02-13 09:59:23 51°16.213 2°54.245 0.9 26 1.7 101990 94
2009-02-13 09:59:29 51°16.217 2°54.251 0.9 25 1.7 101990 94
2009-02-13 09:59:33 51°16.219 2°54.255 0.9 31 1.7 101990 94
2009-02-13 09:59:39 51°16.223 2°54.26 0.9 31 1.8 101980 94
2009-02-13 09:59:43 51°16.225 2°54.264 0.9 31 1.8 101980 94
2009-02-13 09:59:48 51°16.228 2°54.268 0.8 31 1.8 101990 94
2009-02-13 09:59:53 51°16.231 2°54.272 0.9 32 1.8 101990 94
2009-02-13 09:59:58 51°16.234 2°54.275 0.9 38 1.8 101990 94
2009-02-13 10:00:03 51°16.236 2°54.278 1.2 45 1.8 101990 94
2009-02-13 10:00:09 51°16.239 2°54.282 1.1 23 1.8 101990 94
2009-02-13 10:00:14 51°16.242 2°54.284 1.2 35 1.8 101990 94
2009-02-13 10:00:19 51°16.245 2°54.286 1.1 19 1.8 101990 94
2009-02-13 10:00:24 51°16.247 2°54.288 1.1 33 1.8 101990 94
2009-02-13 10:00:29 51°16.249 2°54.29 1.1 24 1.8 101990 94
2009-02-13 10:00:33 51°16.251 2°54.291 1.6 34 1.8 101990 94
2009-02-13 10:00:39 51°16.254 2°54.293 1.7 28 1.8 101990 94
2009-02-13 10:00:44 51°16.256 2°54.294 1 36 1.8 101990 94
2009-02-13 10:00:49 51°16.258 2°54.295 1.1 24 1.8 101990 94
2009-02-13 10:00:53 51°16.259 2°54.296 0.8 35 1.8 101990 94
2009-02-13 10:00:57 51°16.261 2°54.296 1 21 1.8 101990 94
2009-02-13 10:01:04 51°16.263 2°54.296 0.9 38 1.8 101990 94
2009-02-13 10:01:09 51°16.265 2°54.296 0.8 20 1.8 101990 94
2009-02-13 10:01:13 51°16.267 2°54.297 1.3 35 1.8 101990 94
2009-02-13 10:01:18 51°16.268 2°54.296 1.3 18 1.8 101990 94
2009-02-13 10:01:24 51°16.27 2°54.296 1.2 38 1.8 101990 94
2009-02-13 10:01:29 51°16.272 2°54.295 1.5 20 1.9 101990 94
2009-02-13 10:01:33 51°16.273 2°54.295 1.4 30 1.9 101990 94
2009-02-13 10:01:37 51°16.274 2°54.294 1.5 20 1.9 101990 95
2009-02-13 10:01:43 51°16.276 2°54.293 1.6 37 1.9 101990 95
2009-02-13 10:01:49 51°16.278 2°54.292 1.4 25 1.9 101990 95
2009-02-13 10:01:53 51°16.278 2°54.291 1.7 31 1.9 101990 95
2009-02-13 10:01:59 51°16.28 2°54.29 1.5 25 1.9 101990 95
2009-02-13 10:02:04 51°16.281 2°54.289 1.8 33 1.9 101990 95
2009-02-13 10:02:09 51°16.282 2°54.287 1.7 22 1.9 101990 96
2009-02-13 10:02:13 51°16.283 2°54.286 2 37 1.9 101990 96
2009-02-13 10:02:18 51°16.284 2°54.285 1.7 21 1.9 101990 94
2009-02-13 10:02:23 51°16.286 2°54.284 1.6 36 1.9 101990 94
2009-02-13 10:02:29 51°16.287 2°54.282 2.1 24 1.9 101990 94
2009-02-13 10:02:34 51°16.288 2°54.28 2.2 36 1.9 101990 94
2009-02-13 10:02:39 51°16.289 2°54.279 2 19 1.9 101990 94
2009-02-13 10:02:44 51°16.289 2°54.277 1.9 37 1.9 101990 94
2009-02-13 10:02:49 51°16.29 2°54.275 2 25 1.9 102000 94
2009-02-13 10:02:53 51°16.291 2°54.274 2.4 35 1.9 102000 94
2009-02-13 10:02:59 51°16.292 2°54.272 2.3 25 1.9 102000 95
2009-02-13 10:03:04 51°16.293 2°54.27 2.5 32 1.9 102000 95
2009-02-13 10:03:09 51°16.293 2°54.268 2.2 21 1.9 101990 95
2009-02-13 10:03:13 51°16.294 2°54.266 2.1 38 1.9 101990 95
2009-02-13 10:03:19 51°16.295 2°54.264 2.7 25 1.9 101990 95
2009-02-13 10:03:24 51°16.296 2°54.262 2.9 31 1.9 101990 95
2009-02-13 10:03:29 51°16.296 2°54.26 2.6 26 1.9 101990 94
2009-02-13 10:03:33 51°16.297 2°54.258 2.8 38 1.9 101990 94
2009-02-13 10:03:38 51°16.297 2°54.256 2.7 26 1.9 101990 95
2009-02-13 10:03:43 51°16.298 2°54.254 2.7 32 1.9 101990 95
2009-02-13 10:03:49 51°16.298 2°54.251 2.5 23 1.9 102000 94
2009-02-13 10:03:53 51°16.299 2°54.249 2.3 36 1.9 102000 94
2009-02-13 10:03:57 51°16.299 2°54.248 2.3 23 1.8 101990 95
2009-02-13 10:04:03 51°16.299 2°54.245 2.3 36 1.8 101990 95
2009-02-13 10:04:09 51°16.3 2°54.242 2.5 24 1.8 102000 93
2009-02-13 10:04:14 51°16.3 2°54.24 2.4 34 1.8 102000 93
2009-02-13 10:04:19 51°16.3 2°54.237 2.5 26 1.8 102000 94
2009-02-13 10:04:24 51°16.3 2°54.235 2.4 30 1.8 102000 94
2009-02-13 10:04:28 51°16.301 2°54.233 2.2 25 1.8 102000 94
2009-02-13 10:04:33 51°16.301 2°54.231 2.1 32 1.8 102000 94
2009-02-13 10:04:39 51°16.301 2°54.228 2.5 23 1.8 102000 93
2009-02-13 10:04:43 51°16.301 2°54.225 2.5 37 1.8 102000 93
2009-02-13 10:04:49 51°16.301 2°54.222 2.3 24 1.8 102000 94
2009-02-13 10:04:54 51°16.301 2°54.22 2.5 32 1.8 102000 94
2009-02-13 10:04:59 51°16.302 2°54.217 2.5 26 1.8 102000 94
2009-02-13 10:05:04 51°16.302 2°54.215 2.5 39 1.8 102000 94
2009-02-13 10:05:09 51°16.302 2°54.213 2.5 20 1.8 102000 95
2009-02-13 10:05:13 51°16.302 2°54.211 2.2 39 1.8 102000 95
2009-02-13 10:05:19 51°16.302 2°54.208 2.2 21 1.8 102000 94
2009-02-13 10:05:24 51°16.302 2°54.205 2.3 35 1.8 102000 94
2009-02-13 10:05:29 51°16.302 2°54.202 2.1 19 1.8 102000 95
2009-02-13 10:05:33 51°16.302 2°54.2 2.6 36 1.8 102000 95
2009-02-13 10:05:38 51°16.301 2°54.197 2.3 23 1.8 102000 94
2009-02-13 10:05:44 51°16.301 2°54.194 3 34 1.8 102000 94
2009-02-13 10:05:49 51°16.301 2°54.192 3.5 25 1.8 102000 93
2009-02-13 10:05:53 51°16.301 2°54.189 2.9 36 1.8 102000 93
2009-02-13 10:05:57 51°16.301 2°54.187 3.3 24 1.9 102000 95
2009-02-13 10:06:03 51°16.3 2°54.184 3.3 38 1.9 102000 95
2009-02-13 10:06:09 51°16.3 2°54.181 2.6 27 1.9 101990 94
2009-02-13 10:06:13 51°16.3 2°54.179 3.2 269 1.9 101990 94
2009-02-13 10:06:17 51°16.3 2°54.177 3.2 270 1.8 102000 95
2009-02-13 10:06:23 51°16.3 2°54.174 3.2 269 1.8 102000 95
2009-02-13 10:06:29 51°16.299 2°54.17 3.1 17 1.9 102000 93
2009-02-13 10:06:33 51°16.299 2°54.168 3.2 270 1.9 102000 93
2009-02-13 10:06:38 51°16.299 2°54.165 3.1 270 1.8 102000 94
2009-02-13 10:06:43 51°16.298 2°54.162 3 269 1.8 102000 94
2009-02-13 10:06:49 51°16.298 2°54.159 3.4 270 1.8 102000 94
2009-02-13 10:06:53 51°16.298 2°54.157 3.4 270 1.8 102000 94
2009-02-13 10:06:59 51°16.297 2°54.154 3.2 269 1.8 101990 95
2009-02-13 10:07:04 51°16.297 2°54.151 3.1 269 1.8 101990 95
2009-02-13 10:07:09 51°16.296 2°54.148 3 268 1.9 102000 94
2009-02-13 10:07:13 51°16.296 2°54.146 2.7 268 1.9 102000 94
2009-02-13 10:07:19 51°16.296 2°54.143 2.6 268 1.9 102000 94
2009-02-13 10:07:24 51°16.295 2°54.14 2.4 268 1.9 102000 94
2009-02-13 10:07:29 51°16.295 2°54.137 2.9 268 1.8 101990 95
2009-02-13 10:07:33 51°16.294 2°54.135 3.1 270 1.8 101990 95
2009-02-13 10:07:39 51°16.294 2°54.131 2.7 267 1.8 101990 95
2009-02-13 10:07:44 51°16.293 2°54.128 2.5 267 1.8 101990 95
2009-02-13 10:07:49 51°16.293 2°54.125 2.3 266 1.8 101990 95
2009-02-13 10:07:53 51°16.292 2°54.123 2.6 267 1.8 101990 95
2009-02-13 10:07:58 51°16.292 2°54.12 2.5 265 1.8 102000 93
2009-02-13 10:08:04 51°16.291 2°54.117 2.5 263 1.8 102000 93
2009-02-13 10:08:09 51°16.29 2°54.114 2.5 264 1.8 101990 94
2009-02-13 10:08:13 51°16.29 2°54.111 2 264 1.8 101990 94
2009-02-13 10:08:17 51°16.289 2°54.109 1.9 264 1.8 102000 94
2009-02-13 10:08:23 51°16.288 2°54.105 2.1 265 1.8 102000 94
2009-02-13 10:08:29 51°16.288 2°54.102 2.8 265 1.8 102000 94
2009-02-13 10:08:33 51°16.287 2°54.1 2.6 263 1.8 102000 94
2009-02-13 10:08:39 51°16.287 2°54.097 2.1 263 1.8 101990 94
2009-02-13 10:08:43 51°16.286 2°54.094 2.1 263 1.8 101990 94
2009-02-13 10:08:49 51°16.286 2°54.09 1.6 263 1.9 101990 95
2009-02-13 10:08:53 51°16.286 2°54.087 2.1 264 1.9 101990 95
2009-02-13 10:08:58 51°16.286 2°54.083 1.7 264 1.8 102000 94
2009-02-13 10:09:03 51°16.287 2°54.08 2.3 265 1.8 102000 94
2009-02-13 10:09:09 51°16.288 2°54.075 2.5 269 1.9 102000 94
2009-02-13 10:09:14 51°16.289 2°54.071 2.1 270 1.9 102000 94
2009-02-13 10:09:19 51°16.29 2°54.068 2.1 25 1.8 102000 95
2009-02-13 10:09:24 51°16.291 2°54.065 2.2 32 1.8 102000 95
2009-02-13 10:09:29 51°16.293 2°54.061 2.3 21 1.8 101990 93
2009-02-13 10:09:33 51°16.294 2°54.059 2.3 36 1.8 101990 93
2009-02-13 10:09:39 51°16.296 2°54.056 1.9 26 1.8 101990 94
2009-02-13 10:09:44 51°16.298 2°54.054 1.7 31 1.8 101990 94
2009-02-13 10:09:49 51°16.3 2°54.053 1.5 23 1.8 102000 94
2009-02-13 10:09:53 51°16.302 2°54.052 1.2 37 1.8 102000 94
2009-02-13 10:09:58 51°16.304 2°54.052 1.1 20 1.8 102000 94
2009-02-13 10:10:04 51°16.306 2°54.052 0.9 36 1.8 102000 94
2009-02-13 10:10:09 51°16.308 2°54.053 0.8 24 1.9 101990 94
2009-02-13 10:10:13 51°16.31 2°54.054 0.5 44 1.9 101990 94
2009-02-13 10:10:17 51°16.311 2°54.055 0.5 33 1.8 101990 94
2009-02-13 10:10:24 51°16.313 2°54.058 1.5 23 1.8 101990 94
2009-02-13 10:10:29 51°16.314 2°54.061 1.8 20 1.8 102000 94
2009-02-13 10:10:33 51°16.315 2°54.063 1.9 30 1.8 102000 94
2009-02-13 10:10:37 51°16.315 2°54.066 2.1 29 1.8 102000 94
2009-02-13 10:10:43 51°16.315 2°54.071 2.4 23 1.8 102000 94
2009-02-13 10:10:49 51°16.315 2°54.075 2.4 24 1.8 102000 95
2009-02-13 10:10:53 51°16.314 2°54.079 2.7 18 1.8 102000 95
2009-02-13 10:10:58 51°16.314 2°54.083 2.8 19 1.9 101990 95
2009-02-13 10:11:03 51°16.312 2°54.087 2.9 16 1.9 101990 95
2009-02-13 10:11:09 51°16.31 2°54.093 3.2 16 1.9 101990 95
2009-02-13 10:11:13 51°16.309 2°54.097 3 13 1.9 101990 95
2009-02-13 10:11:19 51°16.306 2°54.103 2.9 14 1.9 101990 96
2009-02-13 10:11:24 51°16.304 2°54.11 2.6 12 1.9 101990 96
2009-02-13 10:11:29 51°16.302 2°54.117 2.9 10 1.9 101990 94
2009-02-13 10:11:34 51°16.3 2°54.125 2.6 8 1.9 101990 94
2009-02-13 10:11:39 51°16.298 2°54.133 2.7 8 1.9 101990 95
2009-02-13 10:11:44 51°16.296 2°54.142 3.1 8 1.9 101990 95
2009-02-13 10:11:48 51°16.295 2°54.15 3 8 1.9 101990 94
2009-02-13 10:11:53 51°16.294 2°54.16 2.9 10 1.9 101990 94
2009-02-13 10:11:59 51°16.293 2°54.171 2.6 11 1.9 101990 94
2009-02-13 10:12:04 51°16.292 2°54.181 2.6 6 1.9 101990 94
2009-02-13 10:12:09 51°16.291 2°54.19 2.5 5 1.9 101990 93
2009-02-13 10:12:13 51°16.291 2°54.198 2.7 8 1.9 101990 93
2009-02-13 10:12:18 51°16.29 2°54.207 3.4 9 1.9 101990 95
2009-02-13 10:12:24 51°16.289 2°54.217 3.5 9 1.9 101990 95
2009-02-13 10:12:29 51°16.287 2°54.225 3.7 8 1.9 101990 94
2009-02-13 10:12:33 51°16.286 2°54.231 3.7 8 1.9 101990 94
2009-02-13 10:12:37 51°16.284 2°54.237 3.2 7 1.9 101990 95
2009-02-13 10:12:44 51°16.282 2°54.247 3.2 8 1.9 101990 95
2009-02-13 10:12:49 51°16.279 2°54.253 3.2 7 1.9 101990 95
2009-02-13 10:12:53 51°16.278 2°54.258 2.9 7 1.9 101990 95
2009-02-13 10:12:58 51°16.275 2°54.263 3.3 8 1.9 102000 95
2009-02-13 10:13:03 51°16.273 2°54.268 3.4 9 1.9 102000 95
2009-02-13 10:13:09 51°16.27 2°54.274 3.2 9 1.9 101990 93
2009-02-13 10:13:13 51°16.268 2°54.277 3.5 12 1.9 101990 93
2009-02-13 10:13:18 51°16.266 2°54.281 3 11 1.9 101990 95
2009-02-13 10:13:23 51°16.263 2°54.285 3.4 10 1.9 101990 95
2009-02-13 10:13:29 51°16.26 2°54.29 2.9 9 1.9 101990 94
2009-02-13 10:13:34 51°16.258 2°54.293 3.2 12 1.9 101990 94
2009-02-13 10:13:39 51°16.255 2°54.296 2.9 14 1.9 101990 95
2009-02-13 10:13:44 51°16.253 2°54.298 3.2 17 1.9 101990 95
2009-02-13 10:13:49 51°16.251 2°54.301 3 15 1.9 101990 94
2009-02-13 10:13:54 51°16.248 2°54.303 3.1 15 1.9 101990 94
2009-02-13 10:13:59 51°16.246 2°54.305 3.2 14 1.8 101990 95
2009-02-13 10:14:04 51°16.243 2°54.307 3.3 12 1.8 101990 95
2009-02-13 10:14:09 51°16.241 2°54.309 2.8 12 1.9 101990 94
2009-02-13 10:14:13 51°16.239 2°54.31 3.2 14 1.9 101990 94
2009-02-13 10:14:19 51°16.236 2°54.312 3.1 15 1.9 101990 94
2009-02-13 10:14:24 51°16.234 2°54.313 3 11 1.9 101990 94
2009-02-13 10:14:29 51°16.232 2°54.314 2.9 14 1.9 101990 95
2009-02-13 10:14:33 51°16.229 2°54.315 2.7 12 1.9 101990 95
2009-02-13 10:14:39 51°16.227 2°54.316 3.2 9 1.9 101990 94
2009-02-13 10:14:44 51°16.224 2°54.317 3.2 13 1.9 101990 94
2009-02-13 10:14:49 51°16.222 2°54.318 3.5 11 1.9 101990 94
2009-02-13 10:14:53 51°16.22 2°54.318 3.1 12 1.9 101990 94
2009-02-13 10:14:57 51°16.218 2°54.319 3.3 11 1.9 101990 93
2009-02-13 10:15:04 51°16.215 2°54.32 2.8 15 1.9 101990 93
2009-02-13 10:15:09 51°16.213 2°54.32 3.1 13 1.9 101990 94
2009-02-13 10:15:13 51°16.211 2°54.32 3 15 1.9 101990 94
2009-02-13 10:15:18 51°16.209 2°54.321 3.3 16 1.9 101990 94
2009-02-13 10:15:23 51°16.206 2°54.321 3 17 1.9 101990 94
2009-02-13 10:15:29 51°16.204 2°54.321 3.4 14 1.8 101990 95
2009-02-13 10:15:33 51°16.202 2°54.321 3.1 16 1.8 101990 95
2009-02-13 10:15:38 51°16.2 2°54.322 3 11 1.9 101990 94
2009-02-13 10:15:43 51°16.198 2°54.321 3.1 11 1.9 101990 94
2009-02-13 10:15:49 51°16.196 2°54.322 2.9 11 1.8 101990 95
2009-02-13 10:15:54 51°16.194 2°54.321 2.9 12 1.8 101990 95
2009-02-13 10:15:59 51°16.192 2°54.321 2.9 13 1.8 101990 95
2009-02-13 10:16:04 51°16.189 2°54.321 3.4 8 1.8 101990 95
2009-02-13 10:16:08 51°16.188 2°54.321 3.3 12 1.8 101990 94
2009-02-13 10:16:13 51°16.186 2°54.321 3.9 9 1.8 101990 94
2009-02-13 10:16:19 51°16.184 2°54.321 3.9 10 1.9 101990 94
2009-02-13 10:16:24 51°16.182 2°54.32 3.9 11 1.9 101990 94
2009-02-13 10:16:29 51°16.18 2°54.32 3.4 11 1.9 101990 95
2009-02-13 10:16:33 51°16.178 2°54.32 3.4 13 1.9 101990 95
2009-02-13 10:16:39 51°16.176 2°54.319 3.1 13 1.9 101990 94
2009-02-13 10:16:44 51°16.174 2°54.319 3.2 12 1.9 101990 94
2009-02-13 10:16:49 51°16.173 2°54.318 3.3 9 1.9 101990 95
2009-02-13 10:16:53 51°16.171 2°54.318 3.1 16 1.9 101990 95
2009-02-13 10:16:59 51°16.169 2°54.317 3.2 14 1.9 101990 94
2009-02-13 10:17:04 51°16.167 2°54.316 3.4 17 1.9 101990 94
2009-02-13 10:17:09 51°16.165 2°54.316 3 18 1.9 101990 95
2009-02-13 10:17:13 51°16.164 2°54.315 3 17 1.9 101990 95
2009-02-13 10:17:17 51°16.163 2°54.315 3.1 17 1.9 101990 94
2009-02-13 10:17:24 51°16.161 2°54.314 3.3 17 1.9 101990 94
2009-02-13 10:17:29 51°16.158 2°54.313 3 17 1.9 101990 95
2009-02-13 10:17:33 51°16.158 2°54.312 3.2 15 1.9 101990 95
2009-02-13 10:17:38 51°16.156 2°54.312 2.9 16 1.9 101990 93
2009-02-13 10:17:43 51°16.154 2°54.311 2.6 17 1.9 101990 93
2009-02-13 10:17:49 51°16.152 2°54.31 2.6 19 1.9 101990 94
2009-02-13 10:17:53 51°16.151 2°54.309 3.3 15 1.9 101990 94
2009-02-13 10:17:59 51°16.149 2°54.308 2.8 19 1.9 101990 94
2009-02-13 10:18:03 51°16.148 2°54.307 2.5 20 1.9 101990 94
2009-02-13 10:18:09 51°16.146 2°54.306 2.7 21 1.9 101990 93
2009-02-13 10:18:14 51°16.145 2°54.305 3.1 16 1.9 101990 93
2009-02-13 10:18:19 51°16.143 2°54.304 3.1 17 1.9 101990 95
2009-02-13 10:18:24 51°16.142 2°54.303 2.9 16 1.9 101990 95
2009-02-13 10:18:28 51°16.141 2°54.302 2.9 18 1.9 101990 95
2009-02-13 10:18:33 51°16.139 2°54.301 3.2 16 1.9 101990 95
2009-02-13 10:18:39 51°16.137 2°54.299 3 14 1.9 101990 95
2009-02-13 10:18:44 51°16.136 2°54.298 2.9 16 1.9 101990 95
2009-02-13 10:18:49 51°16.134 2°54.297 3 17 1.9 101990 95
2009-02-13 10:18:53 51°16.133 2°54.296 3.4 18 1.9 101990 95
2009-02-13 10:18:59 51°16.131 2°54.294 3 18 1.9 101990 95
2009-02-13 10:19:04 51°16.13 2°54.293 2.6 14 1.9 101990 95
2009-02-13 10:19:09 51°16.129 2°54.292 2.8 15 1.9 101990 94
2009-02-13 10:19:13 51°16.128 2°54.291 2.7 17 1.9 101990 94
2009-02-13 10:19:17 51°16.126 2°54.29 2.7 17 1.9 101990 94
2009-02-13 10:19:24 51°16.125 2°54.288 3.1 14 1.9 101990 94
2009-02-13 10:19:29 51°16.123 2°54.287 2.9 17 1.9 101990 95
2009-02-13 10:19:33 51°16.122 2°54.286 2.9 16 1.9 101990 95
2009-02-13 10:19:37 51°16.121 2°54.284 3.1 17 1.9 101990 95
2009-02-13 10:19:44 51°16.119 2°54.282 3.1 13 1.9 101990 95
2009-02-13 10:19:49 51°16.118 2°54.281 3.2 15 1.9 101990 94
2009-02-13 10:19:53 51°16.117 2°54.28 3 19 1.9 101990 94
2009-02-13 10:19:58 51°16.116 2°54.278 2.9 19 1.9 101990 95
2009-02-13 10:20:03 51°16.114 2°54.277 2.8 20 1.9 101990 95
2009-02-13 10:20:09 51°16.113 2°54.275 2.8 17 1.9 101990 95
2009-02-13 10:20:13 51°16.112 2°54.274 2.9 18 1.9 101990 95
2009-02-13 10:20:19 51°16.11 2°54.272 2.8 17 1.9 101990 95
2009-02-13 10:20:24 51°16.109 2°54.271 2.4 17 1.9 101990 95
2009-02-13 10:20:29 51°16.108 2°54.269 2.7 17 1.9 101990 95
2009-02-13 10:20:34 51°16.107 2°54.268 2.8 17 1.9 101990 95
2009-02-13 10:20:39 51°16.105 2°54.266 3 20 1.9 101990 94
2009-02-13 10:20:44 51°16.104 2°54.265 2.9 16 1.9 101990 94
2009-02-13 10:20:49 51°16.103 2°54.263 3 16 1.9 101990 96
2009-02-13 10:20:53 51°16.102 2°54.262 2.7 16 1.9 101990 96
2009-02-13 10:20:59 51°16.1 2°54.26 3.1 20 1.9 101990 94
2009-02-13 10:21:04 51°16.099 2°54.258 4 18 1.9 101990 94
2009-02-13 10:21:09 51°16.098 2°54.256 3.8 17 1.9 101990 95
2009-02-13 10:21:13 51°16.097 2°54.255 3.6 22 1.9 101990 95
2009-02-13 10:21:19 51°16.095 2°54.253 3.4 22 1.9 101990 94
2009-02-13 10:21:24 51°16.094 2°54.251 3.3 23 1.9 101990 94
2009-02-13 10:21:29 51°16.093 2°54.25 3.2 24 1.9 101980 94
2009-02-13 10:21:33 51°16.092 2°54.248 3.3 24 1.9 101980 94
2009-02-13 10:21:37 51°16.091 2°54.247 3.4 25 1.9 101990 94
2009-02-13 10:21:44 51°16.089 2°54.244 3 26 1.9 101990 94
2009-02-13 10:21:49 51°16.088 2°54.243 3.1 26 1.9 101990 94
2009-02-13 10:21:53 51°16.087 2°54.241 3.1 27 1.9 101990 94
2009-02-13 10:21:58 51°16.086 2°54.239 3 25 1.9 101990 94
2009-02-13 10:22:04 51°16.085 2°54.237 3 28 1.9 101990 94
2009-02-13 10:22:09 51°16.084 2°54.236 2.9 28 1.9 101990 94
2009-02-13 10:22:13 51°16.083 2°54.234 3 25 1.9 101990 94
2009-02-13 10:22:18 51°16.082 2°54.232 3 28 1.9 101990 95
2009-02-13 10:22:23 51°16.081 2°54.23 2.9 28 1.9 101990 95
2009-02-13 10:22:29 51°16.079 2°54.228 2.9 27 1.9 101990 95
2009-02-13 10:22:34 51°16.078 2°54.227 3 28 1.9 101990 95
2009-02-13 10:22:39 51°16.077 2°54.225 2.9 25 1.9 101990 95
2009-02-13 10:22:44 51°16.076 2°54.224 2.9 28 1.9 101990 95
2009-02-13 10:22:48 51°16.074 2°54.223 2.9 26 1.9 101990 95
2009-02-13 10:22:53 51°16.073 2°54.222 2.8 25 1.9 101990 95
2009-02-13 10:22:59 51°16.071 2°54.222 2.4 29 1.9 101990 95
2009-02-13 10:23:04 51°16.07 2°54.222 2.7 28 1.9 101990 95
2009-02-13 10:23:09 51°16.069 2°54.223 2.6 27 1.9 101990 95
2009-02-13 10:23:14 51°16.067 2°54.224 2.5 27 1.9 101990 95
2009-02-13 10:23:19 51°16.066 2°54.225 2.7 27 1.9 101990 95
2009-02-13 10:23:24 51°16.066 2°54.226 2.4 35 1.9 101990 95
2009-02-13 10:23:29 51°16.065 2°54.227 2.1 36 1.9 101990 95
2009-02-13 10:23:33 51°16.064 2°54.228 1.8 37 1.9 101990 95
2009-02-13 10:23:39 51°16.064 2°54.231 2 37 1.9 101990 95
2009-02-13 10:23:44 51°16.065 2°54.232 2.1 39 1.9 101990 95
2009-02-13 10:23:49 51°16.065 2°54.234 1.9 20 1.9 101980 95
2009-02-13 10:23:53 51°16.066 2°54.236 1.5 33 1.9 101980 95
2009-02-13 10:23:57 51°16.067 2°54.237 1.5 27 1.9 101990 94
2009-02-13 10:24:04 51°16.069 2°54.239 1.2 36 1.9 101990 94
2009-02-13 10:24:09 51°16.071 2°54.24 1.1 19 1.9 101990 94
2009-02-13 10:24:13 51°16.072 2°54.24 0.6 33 1.9 101990 94
2009-02-13 10:24:18 51°16.074 2°54.241 0.5 22 1.9 101990 94
2009-02-13 10:24:23 51°16.077 2°54.241 0.3 36 1.9 101990 94
2009-02-13 10:24:29 51°16.081 2°54.241 0.7 286 1.9 101990 94
2009-02-13 10:24:33 51°16.084 2°54.241 1.5 36 1.9 101990 94
2009-02-13 10:24:37 51°16.087 2°54.241 1.2 24 1.9 101990 95
2009-02-13 10:24:43 51°16.092 2°54.241 1.2 239 1.9 101990 95
2009-02-13 10:24:49 51°16.097 2°54.241 1.2 24 1.9 101990 94
2009-02-13 10:24:54 51°16.101 2°54.241 1 263 1.9 101990 94
2009-02-13 10:24:59 51°16.106 2°54.242 0.8 263 1.9 101990 94
2009-02-13 10:25:04 51°16.111 2°54.242 0.9 264 1.9 101990 94